GW5679 Weather Reports


Display with metric or nautical units.
time (UTC)temp
F
wind
direction
speed
MPH
gust
MPH
rain 1hr
in
rain 24hr
in
rain mn
in
humidity
%
barometer
mb
20260831210746 91 119 2.0 4.0 0.00 0.00 0.00 54 1013.4
20260831210242 91 141 3.0 3.0 0.00 0.00 0.00 53 1013.3
20260831205741 91 102 2.0 4.0 0.00 0.00 0.00 51 1013.7
20260831205238 90 156 0.0 2.0 0.00 0.00 0.00 52 1013.6
20260831204737 89 332 5.0 9.0 0.00 0.00 0.00 53 1013.7
20260831204237 89 92 2.0 2.0 0.00 0.00 0.00 57 1013.8
20260831203736 88 22 6.0 7.0 0.00 0.00 0.00 58 1013.8
20260831203231 88 93 6.0 10.0 0.00 0.00 0.00 57 1014.2
20260831202729 89 49 5.0 7.0 0.00 0.00 0.00 57 1014.0
20260831202224 90 130 1.0 3.0 0.00 0.00 0.00 56 1014.1
20260831201719 90 10 2.0 3.0 0.00 0.00 0.00 58 1014.0
20260831201218 90 184 2.0 4.0 0.00 0.00 0.00 58 1014.0
20260831200714 91 191 3.0 4.0 0.00 0.00 0.00 58 1014.0
20260831200214 91 150 3.0 7.0 0.00 0.00 0.00 59 1013.8
20260831195709 92 143 2.0 6.0 0.00 0.00 0.00 59 1014.0
20260831195205 92 149 2.0 6.0 0.00 0.00 0.00 59 1014.0
20260831194659 93 349 2.0 4.0 0.00 0.00 0.00 59 1014.0
20260831194155 93 179 2.0 4.0 0.00 0.00 0.00 59 1014.1
20260831193649 93 107 3.0 7.0 0.00 0.00 0.00 59 1014.3
20260831193144 92 138 3.0 7.0 0.00 0.00 0.00 61 1014.1
20260831192639 92 151 5.0 9.0 0.00 0.00 0.00 61 1014.4
20260831192135 93 150 5.0 7.0 0.00 0.00 0.00 59 1014.5
20260831191631 93 127 4.0 7.0 0.00 0.00 0.00 59 1014.5
20260831191127 94 139 4.0 6.0 0.00 0.00 0.00 56 1014.5
20260831190622 95 171 3.0 4.0 0.00 0.00 0.00 53 1014.2
20260831190121 95 134 0.0 3.0 0.00 0.00 0.00 54 1014.3
20260831185616 96 177 3.0 4.0 0.00 0.00 0.00 51 1014.5
20260831185112 96 64 3.0 4.0 0.00 0.00 0.00 50 1014.4
20260831184611 96 180 3.0 4.0 0.00 0.00 0.00 50 1014.7
20260831184107 96 168 2.0 2.0 0.00 0.00 0.00 50 1014.5
20260831183601 95 102 2.0 2.0 0.00 0.00 0.00 52 1014.6
20260831183100 95 144 2.0 2.0 0.00 0.00 0.00 52 1014.8
20260831182600 95 176 3.0 7.0 0.00 0.00 0.00 53 1014.8
20260831182056 94 156 2.0 2.0 0.00 0.00 0.00 54 1014.8
20260831181555 94 143 4.0 4.0 0.00 0.00 0.00 53 1015.0
20260831181055 96 200 2.0 7.0 0.00 0.00 0.00 52 1015.0
20260831180550 95 134 4.0 4.0 0.00 0.00 0.00 53 1015.1
20260831180046 94 138 0.0 1.0 0.00 0.00 0.00 53 1015.2
20260831175536 93 134 2.0 2.0 0.00 0.00 0.00 54 1015.2
20260831175032 93 65 0.0 1.0 0.00 0.00 0.00 55 1015.1
20260831174526 93 84 2.0 4.0 0.00 0.00 0.00 55 1015.1
20260831174026 93 124 2.0 7.0 0.00 0.00 0.00 56 1015.2
20260831173524 92 154 1.0 2.0 0.00 0.00 0.00 57 1015.0
20260831173021 93 69 2.0 8.0 0.00 0.00 0.00 57 1015.3
20260831172516 94 175 3.0 3.0 0.00 0.00 0.00 54 1015.5
20260831172011 95 102 1.0 4.0 0.00 0.00 0.00 52 1015.5
20260831171507 95 162 0.0 2.0 0.00 0.00 0.00 53 1015.5
20260831171003 94 207 1.0 2.0 0.00 0.00 0.00 53 1015.5
20260831170459 93 169 1.0 2.0 0.00 0.00 0.00 56 1015.3
20260831165956 94 119 1.0 4.0 0.00 0.00 0.00 55 1015.5
20260831165456 95 102 0.0 2.0 0.00 0.00 0.00 53 1015.3
20260831164953 94 130 1.0 3.0 0.00 0.00 0.00 54 1015.6
20260831164449 95 140 2.0 2.0 0.00 0.00 0.00 52 1015.6
20260831163944 96 174 2.0 3.0 0.00 0.00 0.00 51 1015.5
20260831163440 94 131 1.0 2.0 0.00 0.00 0.00 54 1015.6
20260831162938 92 145 1.0 2.0 0.00 0.00 0.00 57 1015.6
20260831162434 94 67 3.0 6.0 0.00 0.00 0.00 56 1015.5
20260831161932 94 164 1.0 2.0 0.00 0.00 0.00 55 1015.5
20260831161429 95 136 1.0 3.0 0.00 0.00 0.00 53 1015.6
20260831160924 94 153 3.0 3.0 0.00 0.00 0.00 54 1015.6
20260831160419 94 89 3.0 3.0 0.00 0.00 0.00 55 1015.7
20260831155919 93 293 2.0 2.0 0.00 0.00 0.00 57 1015.7
20260831155414 92 181 1.0 3.0 0.00 0.00 0.00 58 1015.7
20260831154909 93 18 6.0 7.0 0.00 0.00 0.00 57 1015.7
20260831154406 92 83 2.0 2.0 0.00 0.00 0.00 59 1015.7
20260831153903 90 205 1.0 3.0 0.00 0.00 0.00 61 1015.7
20260831153400 89 152 0.0 1.0 0.00 0.00 0.00 64 1015.9
20260831152855 90 77 3.0 8.0 0.00 0.00 0.00 63 1015.7
20260831152351 93 94 2.0 3.0 0.00 0.00 0.00 59 1015.6
20260831151851 93 143 0.0 2.0 0.00 0.00 0.00 59 1015.7
20260831151350 91 115 0.0 1.0 0.00 0.00 0.00 61 1015.6
20260831150845 90 129 2.0 3.0 0.00 0.00 0.00 62 1015.7
20260831150341 90 96 1.0 2.0 0.00 0.00 0.00 63 1015.7
20260831145840 89 236 1.0 3.0 0.00 0.00 0.00 63 1015.5
20260831145337 89 211 2.0 3.0 0.00 0.00 0.00 63 1015.5
20260831144832 89 154 1.0 3.0 0.00 0.00 0.00 65 1015.5
20260831144329 89 98 1.0 4.0 0.00 0.00 0.00 65 1015.4
20260831143828 89 263 2.0 4.0 0.00 0.00 0.00 64 1015.4
20260831143324 89 162 1.0 3.0 0.00 0.00 0.00 64 1015.5
20260831142819 88 164 0.0 0.0 0.00 0.00 0.00 68 1015.4
20260831142314 87 166 1.0 3.0 0.00 0.00 0.00 71 1015.6
20260831141814 87 166 0.0 3.0 0.00 0.00 0.00 73 1015.6
20260831141308 86 150 1.0 2.0 0.00 0.00 0.00 73 1015.5
20260831140803 86 227 2.0 3.0 0.00 0.00 0.00 74 1015.5
20260831140258 86 202 1.0 3.0 0.00 0.00 0.00 76 1015.5
20260831135755 86 179 0.0 3.0 0.00 0.00 0.00 76 1015.3
20260831135251 85 168 0.0 2.0 0.00 0.00 0.00 78 1015.0
20260831134747 85 163 1.0 3.0 0.00 0.00 0.00 78 1015.1
20260831134244 85 148 1.0 2.0 0.00 0.00 0.00 79 1015.1
20260831133743 84 123 1.0 1.0 0.00 0.00 0.00 79 1015.3
20260831133242 84 117 1.0 3.0 0.00 0.00 0.00 80 1015.2
20260831132737 83 167 2.0 3.0 0.00 0.00 0.00 81 1015.0
20260831132232 83 335 1.0 2.0 0.00 0.00 0.00 82 1015.1
20260831131732 82 100 2.0 3.0 0.00 0.00 0.00 82 1014.9
20260831131229 82 79 2.0 3.0 0.00 0.00 0.00 83 1015.0
20260831130724 82 125 2.0 3.0 0.00 0.00 0.00 84 1014.8
20260831130219 81 123 2.0 2.0 0.00 0.00 0.00 84 1014.9
20260831125717 81 90 2.0 3.0 0.00 0.00 0.00 84 1014.6
20260831125214 81 302 2.0 4.0 0.00 0.00 0.00 84 1014.7
20260831124714 81 315 3.0 4.0 0.00 0.00 0.00 84 1014.7
20260831124211 81 205 2.0 2.0 0.00 0.00 0.00 84 1014.6
20260831123711 81 213 2.0 2.0 0.00 0.00 0.00 84 1014.6
20260831123210 81 101 1.0 2.0 0.00 0.00 0.00 84 1014.4
20260831122710 81 81 1.0 3.0 0.00 0.00 0.00 84 1014.4
20260831122206 81 340 2.0 2.0 0.00 0.00 0.00 84 1014.4
20260831121705 81 158 0.0 0.0 0.00 0.00 0.00 85 1014.2
20260831121202 81 162 0.0 0.0 0.00 0.00 0.00 84 1014.1
20260831120657 81 177 0.0 0.0 0.00 0.00 0.00 85 1014.2
20260831120157 81 153 0.0 0.0 0.00 0.00 0.00 85 1014.2
20260831115653 80 117 1.0 1.0 0.00 0.00 0.00 85 1014.0
20260831115148 80 139 0.0 0.0 0.00 0.00 0.00 85 1013.9
20260831114647 80 164 0.0 0.0 0.00 0.00 0.00 85 1013.9
20260831114142 80 162 0.0 0.0 0.00 0.00 0.00 84 1013.9
20260831113642 80 167 0.0 0.0 0.00 0.00 0.00 84 1014.0
20260831113137 81 194 0.0 1.0 0.00 0.00 0.00 84 1013.9
20260831112636 81 36 2.0 2.0 0.00 0.00 0.00 84 1013.9
20260831112131 81 123 0.0 0.0 0.00 0.00 0.00 84 1014.0
20260831111627 81 156 0.0 0.0 0.00 0.00 0.00 83 1014.0
20260831111123 81 170 0.0 0.0 0.00 0.00 0.00 83 1014.0
20260831110618 81 174 0.0 0.0 0.00 0.00 0.00 84 1014.0
20260831110114 81 184 0.0 0.0 0.00 0.00 0.00 84 1013.8
20260831105613 81 173 0.0 0.0 0.00 0.00 0.00 83 1014.1
20260831105108 81 183 1.0 2.0 0.00 0.00 0.00 84 1014.0
20260831104603 81 174 0.0 0.0 0.00 0.00 0.00 83 1013.8
20260831104059 81 161 0.0 1.0 0.00 0.00 0.00 83 1014.1
20260831103554 81 129 0.0 0.0 0.00 0.00 0.00 83 1013.9
20260831103051 81 153 1.0 2.0 0.00 0.00 0.00 83 1014.1
20260831102550 81 165 2.0 2.0 0.00 0.00 0.00 83 1014.0
20260831102045 81 139 0.0 0.0 0.00 0.00 0.00 82 1014.0
20260831101540 81 185 0.0 1.0 0.00 0.00 0.00 82 1014.1
20260831101037 81 194 1.0 2.0 0.00 0.00 0.00 82 1014.0
20260831100532 81 184 2.0 2.0 0.00 0.00 0.00 82 1014.0
20260831100028 81 214 2.0 2.0 0.00 0.00 0.00 82 1014.0
20260831095526 81 167 0.0 0.0 0.00 0.00 0.00 82 1013.9
20260831095021 81 168 0.0 3.0 0.00 0.00 0.00 82 1013.9
20260831094517 81 202 2.0 2.0 0.00 0.00 0.00 82 1013.9
20260831094013 81 202 1.0 2.0 0.00 0.00 0.00 82 1014.0
20260831093513 81 208 1.0 2.0 0.00 0.00 0.00 82 1013.7
20260831093009 81 179 1.0 2.0 0.00 0.00 0.00 82 1014.0
20260831092505 82 167 0.0 1.0 0.00 0.00 0.00 82 1013.8
20260831092000 82 178 0.0 1.0 0.00 0.00 0.00 82 1013.9
20260831091455 82 206 1.0 4.0 0.00 0.00 0.00 82 1013.8
20260831090950 82 178 2.0 3.0 0.00 0.00 0.00 82 1013.7
20260831090446 82 196 1.0 1.0 0.00 0.00 0.00 82 1013.6
20260831085942 82 214 2.0 3.0 0.00 0.00 0.00 82 1013.9
20260831085437 82 183 1.0 2.0 0.00 0.00 0.00 81 1014.0
20260831084936 82 198 2.0 3.0 0.00 0.00 0.00 81 1014.1
20260831084433 82 170 0.0 3.0 0.00 0.00 0.00 81 1014.0
20260831083929 82 173 2.0 3.0 0.00 0.00 0.00 81 1013.9
20260831083424 82 156 3.0 3.0 0.00 0.00 0.00 81 1014.1
20260831082923 82 156 2.0 3.0 0.00 0.00 0.00 81 1014.1
20260831082423 82 210 2.0 3.0 0.00 0.00 0.00 81 1014.1
20260831081919 82 164 1.0 2.0 0.00 0.00 0.00 81 1014.2
20260831081414 82 163 0.0 2.0 0.00 0.00 0.00 80 1013.9
20260831080910 82 208 2.0 3.0 0.00 0.00 0.00 81 1014.1
20260831080405 82 190 1.0 3.0 0.00 0.00 0.00 81 1014.1
20260831075900 82 193 1.0 2.0 0.00 0.00 0.00 81 1014.2
20260831075355 82 195 1.0 2.0 0.00 0.00 0.00 81 1014.2
20260831074851 82 170 0.0 1.0 0.00 0.00 0.00 81 1014.0
20260831074349 82 155 0.0 0.0 0.00 0.00 0.00 81 1014.1
20260831073845 82 156 1.0 2.0 0.00 0.00 0.00 81 1013.9
20260831073344 82 163 1.0 2.0 0.00 0.00 0.00 80 1013.9
20260831072839 82 171 0.0 2.0 0.00 0.00 0.00 80 1014.0
20260831072335 82 175 0.0 1.0 0.00 0.00 0.00 80 1014.0
20260831071831 82 165 2.0 4.0 0.00 0.00 0.00 80 1014.0
20260831071330 83 183 0.0 4.0 0.00 0.00 0.00 79 1014.0
20260831070825 82 171 3.0 4.0 0.00 0.00 0.00 80 1014.2
20260831070324 82 185 1.0 2.0 0.00 0.00 0.00 80 1014.1
20260831065823 83 171 1.0 3.0 0.00 0.00 0.00 79 1014.1
20260831065321 83 173 2.0 4.0 0.00 0.00 0.00 79 1014.2
20260831064817 83 197 2.0 3.0 0.00 0.00 0.00 79 1014.1
20260831064312 83 171 2.0 3.0 0.00 0.00 0.00 79 1014.4
20260831063808 83 177 3.0 3.0 0.00 0.00 0.00 79 1014.2
20260831063303 83 166 4.0 6.0 0.00 0.00 0.00 79 1014.3
20260831062803 83 184 2.0 3.0 0.00 0.00 0.00 79 1014.4
20260831062258 83 132 4.0 4.0 0.00 0.00 0.00 79 1014.3
20260831061756 83 181 2.0 4.0 0.00 0.00 0.00 80 1014.4
20260831061251 83 161 5.0 6.0 0.00 0.00 0.00 79 1014.4
20260831060748 83 131 2.0 8.0 0.00 0.00 0.00 80 1014.4
20260831060247 83 195 3.0 6.0 0.00 0.00 0.00 80 1014.4
20260831055747 83 192 4.0 4.0 0.00 0.00 0.00 80 1014.4
20260831055242 83 200 4.0 6.0 0.00 0.00 0.00 79 1014.4
20260831054737 83 205 2.0 3.0 0.00 0.00 0.00 79 1014.5
20260831054232 83 140 3.0 4.0 0.00 0.00 0.00 79 1014.5
20260831053731 83 186 2.0 4.0 0.00 0.00 0.00 79 1014.5
20260831053229 83 172 2.0 3.0 0.00 0.00 0.00 79 1014.4
20260831052724 83 160 1.0 3.0 0.00 0.00 0.00 79 1014.3
20260831052223 83 165 3.0 3.0 0.00 0.00 0.00 80 1014.5
20260831051721 83 189 3.0 4.0 0.00 0.00 0.00 79 1014.5
20260831051220 83 183 4.0 6.0 0.00 0.00 0.00 79 1014.3
20260831050720 83 164 5.0 7.0 0.00 0.00 0.00 79 1014.5
20260831050219 83 180 5.0 7.0 0.00 0.00 0.00 79 1014.2
20260831045715 83 198 3.0 6.0 0.00 0.00 0.00 79 1014.1
20260831045210 84 182 2.0 7.0 0.00 0.00 0.00 79 1014.3
20260831044709 84 185 3.0 4.0 0.00 0.00 0.00 78 1014.4
20260831044205 84 190 3.0 6.0 0.00 0.00 0.00 78 1014.1
20260831043700 84 188 2.0 3.0 0.00 0.00 0.00 78 1014.2
20260831043155 84 188 2.0 6.0 0.00 0.00 0.00 78 1014.1
20260831042654 84 142 5.0 8.0 0.00 0.00 0.00 77 1014.2
20260831042149 84 152 3.0 6.0 0.00 0.00 0.00 77 1014.1
20260831041644 84 164 5.0 8.0 0.00 0.00 0.00 77 1014.0
20260831041138 84 186 6.0 8.0 0.00 0.00 0.00 77 1014.0
20260831040634 84 184 7.0 9.0 0.00 0.00 0.00 77 1014.0
20260831040132 84 195 4.0 8.0 0.00 0.00 0.00 76 1014.1
20260831035631 85 158 6.0 8.0 0.00 0.00 0.00 76 1014.0
20260831035126 85 200 4.0 4.0 0.00 0.00 0.00 76 1014.0
20260831034625 85 134 2.0 6.0 0.00 0.00 0.00 76 1014.1
20260831034120 85 144 7.0 8.0 0.00 0.00 0.00 76 1013.9
20260831033616 85 166 5.0 7.0 0.00 0.00 0.00 75 1013.9
20260831033111 85 138 5.0 9.0 0.00 0.00 0.00 75 1013.7
20260831032610 85 151 4.0 6.0 0.00 0.00 0.00 75 1013.8
20260831032106 85 173 5.0 6.0 0.00 0.00 0.00 74 1013.8
20260831031606 85 142 4.0 8.0 0.00 0.00 0.00 74 1013.6
20260831031100 85 146 4.0 8.0 0.00 0.00 0.00 74 1013.6
20260831030559 86 110 6.0 10.0 0.00 0.00 0.00 73 1013.6
20260831030058 86 197 6.0 8.0 0.00 0.00 0.00 72 1013.4
20260831025556 86 175 8.0 11.0 0.00 0.00 0.00 72 1013.3
20260831025051 86 155 7.0 10.0 0.00 0.00 0.00 71 1013.3
20260831024548 86 172 7.0 9.0 0.00 0.00 0.00 71 1013.2
20260831024046 86 130 5.0 9.0 0.00 0.00 0.00 71 1013.3
20260831023545 86 114 5.0 10.0 0.00 0.00 0.00 70 1013.1
20260831023039 87 146 7.0 9.0 0.00 0.00 0.00 70 1012.9
20260831022539 87 143 4.0 7.0 0.00 0.00 0.00 69 1013.1
20260831022034 87 147 6.0 11.0 0.00 0.00 0.00 69 1013.2
20260831021532 87 153 7.0 10.0 0.00 0.00 0.00 69 1013.0
20260831021029 87 159 2.0 8.0 0.00 0.00 0.00 68 1012.8
20260831020524 87 144 5.0 7.0 0.00 0.00 0.00 67 1012.6
20260831020019 87 163 6.0 9.0 0.00 0.00 0.00 67 1012.9
20260831015514 87 143 4.0 10.0 0.00 0.00 0.00 66 1012.5
20260831015009 87 163 9.0 11.0 0.00 0.00 0.00 66 1012.7
20260831014458 88 161 10.0 10.0 0.00 0.00 0.00 65 1012.6
20260831013953 88 152 6.0 10.0 0.00 0.00 0.00 64 1012.7
20260831013449 88 142 7.0 9.0 0.00 0.00 0.00 63 1012.7
20260831012943 89 169 7.0 8.0 0.00 0.00 0.00 62 1012.8
20260831012438 89 143 7.0 10.0 0.00 0.00 0.00 62 1012.4
20260831011932 89 146 5.0 9.0 0.00 0.00 0.00 61 1012.6
20260831011427 89 159 6.0 9.0 0.00 0.00 0.00 61 1012.4
20260831010923 90 156 5.0 7.0 0.00 0.00 0.00 60 1012.5
20260831010417 90 120 5.0 7.0 0.00 0.00 0.00 59 1012.4
20260831005913 90 188 4.0 4.0 0.00 0.00 0.00 59 1012.5
20260831005409 90 128 4.0 9.0 0.00 0.00 0.00 58 1012.4
20260831004903 91 149 6.0 8.0 0.00 0.00 0.00 57 1012.5
20260831004400 91 157 9.0 13.0 0.00 0.00 0.00 56 1012.4
20260831003855 91 132 12.0 13.0 0.00 0.00 0.00 56 1012.3
20260831003351 92 148 4.0 7.0 0.00 0.00 0.00 55 1012.2
20260831002850 91 163 4.0 7.0 0.00 0.00 0.00 55 1012.3
20260831002349 92 136 5.0 10.0 0.00 0.00 0.00 53 1012.0
20260831001845 92 139 7.0 9.0 0.00 0.00 0.00 53 1012.3
20260831001339 93 149 3.0 10.0 0.00 0.00 0.00 51 1012.2
20260831000837 93 140 5.0 7.0 0.00 0.00 0.00 50 1012.1
20260831000340 94 105 5.0 7.0 0.00 0.00 0.00 49 1012.2
20260830235836 94 120 8.0 11.0 0.00 0.00 0.00 49 1012.2
20260830235331 94 136 6.0 11.0 0.00 0.00 0.00 48 1012.2
20260830234826 95 131 6.0 10.0 0.00 0.00 0.00 48 1012.2
20260830234322 95 133 8.0 14.0 0.00 0.00 0.00 46 1012.0
20260830233817 95 168 4.0 10.0 0.00 0.00 0.00 46 1012.1
20260830233313 95 156 6.0 9.0 0.00 0.00 0.00 46 1012.2
20260830232808 96 114 7.0 10.0 0.00 0.00 0.00 45 1012.1
20260830232306 96 128 4.0 9.0 0.00 0.00 0.00 46 1012.0
20260830231801 96 144 8.0 10.0 0.00 0.00 0.00 45 1012.0
20260830231300 96 144 5.0 16.0 0.00 0.00 0.00 45 1011.9
20260830230755 97 144 9.0 11.0 0.00 0.00 0.00 45 1011.9
20260830230250 96 133 5.0 9.0 0.00 0.00 0.00 45 1011.8
20260830225749 96 137 7.0 15.0 0.00 0.00 0.00 45 1011.8
20260830225245 97 171 5.0 11.0 0.00 0.00 0.00 42 1011.9
20260830224743 98 146 6.0 13.0 0.00 0.00 0.00 42 1011.8
20260830224239 99 168 9.0 10.0 0.00 0.00 0.00 40 1011.9
20260830223736 98 184 4.0 9.0 0.00 0.00 0.00 40 1012.0
20260830223231 98 152 5.0 13.0 0.00 0.00 0.00 41 1011.8
20260830222726 98 180 5.0 8.0 0.00 0.00 0.00 40 1011.8
20260830222221 98 139 4.0 8.0 0.00 0.00 0.00 40 1011.7
20260830221717 99 156 4.0 10.0 0.00 0.00 0.00 40 1011.9
20260830221214 99 172 7.0 10.0 0.00 0.00 0.00 39 1011.6
20260830220708 99 141 3.0 8.0 0.00 0.00 0.00 39 1011.9
20260830220207 101 186 7.0 8.0 0.00 0.00 0.00 37 1011.8
20260830215706 99 170 1.0 1.0 0.00 0.00 0.00 38 1011.7
20260830215201 100 163 4.0 8.0 0.00 0.00 0.00 38 1012.1
20260830214657 100 147 6.0 8.0 0.00 0.00 0.00 39 1011.8
20260830214156 100 165 7.0 10.0 0.00 0.00 0.00 38 1012.1
20260830213655 99 170 1.0 6.0 0.00 0.00 0.00 40 1011.8
20260830213151 99 188 6.0 13.0 0.00 0.00 0.00 39 1012.2
20260830212647 99 188 7.0 9.0 0.00 0.00 0.00 38 1012.2
20260830212142 99 178 4.0 7.0 0.00 0.00 0.00 39 1012.2
20260830211637 100 110 5.0 6.0 0.00 0.00 0.00 38 1012.3
20260830211136 99 157 3.0 7.0 0.00 0.00 0.00 39 1012.5